FW9327 Weather Reports


Display with metric or nautical units.
time (UTC)temp
F
wind
direction
speed
MPH
gust
MPH
rain 1hr
in
rain 24hr
in
rain mn
in
humidity
%
barometer
mb
20260508124555 46 5 0.0 2.0 0.00 0.01 0.00 94 1010.0
20260508123056 45 0 0.0 1.0 0.00 0.01 0.00 94 1010.4
20260508121555 44 0 0.0 1.0 0.00 0.01 0.00 94 1010.2
20260508120055 43 5 0.0 1.0 0.00 0.01 0.00 94 1010.1
20260508114554 43 0 0.0 0.0 0.00 0.01 0.00 94 1010.1
20260508113056 42 0 0.0 1.0 0.00 0.01 0.00 94 1010.1
20260508111554 41 0 0.0 0.0 0.00 0.01 0.00 94 1009.9
20260508110052 41 0 0.0 0.0 0.00 0.01 0.00 93 1009.8
20260508104551 41 0 0.0 0.0 0.00 0.01 0.00 93 1009.9
20260508103053 40 0 0.0 0.0 0.00 0.01 0.00 93 1010.0
20260508101552 39 0 0.0 1.0 0.00 0.01 0.00 93 1010.0
20260508100053 39 0 0.0 0.0 0.00 0.01 0.00 92 1010.0
20260508094603 39 5 0.0 1.0 0.00 0.01 0.00 92 1010.0
20260508093051 39 0 0.0 1.0 0.00 0.01 0.00 92 1010.2
20260508091600 39 0 0.0 0.0 0.00 0.01 0.00 91 1010.2
20260508090055 40 0 0.0 0.0 0.00 0.01 0.00 91 1010.2
20260508084554 41 0 0.0 0.0 0.00 0.01 0.00 91 1010.2
20260508083101 41 0 0.0 0.0 0.00 0.01 0.00 91 1010.3
20260508081608 41 0 0.0 0.0 0.00 0.01 0.00 90 1010.2
20260508080053 42 0 0.0 1.0 0.00 0.01 0.00 90 1010.3
20260508074552 42 0 0.0 1.0 0.00 0.01 0.00 90 1010.3
20260508073052 42 0 0.0 2.0 0.00 0.01 0.00 90 1010.4
20260508071550 42 0 0.0 1.0 0.00 0.01 0.00 89 1010.6
20260508070101 43 0 0.0 2.0 0.00 0.01 0.00 90 1010.6
20260508064549 43 0 0.0 0.0 0.00 0.01 0.00 88 1010.7
20260508063055 43 0 0.0 0.0 0.00 0.01 0.00 87 1010.6
20260508061551 44 0 0.0 1.0 0.00 0.01 0.00 88 1010.6
20260508060056 44 0 0.0 0.0 0.00 0.01 0.00 87 1010.8
20260508054554 44 0 0.0 0.0 0.00 0.01 0.00 84 1010.7
20260508053058 45 0 0.0 0.0 0.00 0.01 0.00 82 1010.6
20260508051554 47 0 0.0 2.0 0.00 0.01 0.00 82 1010.5
20260508050057 47 0 0.0 3.0 0.00 0.01 0.00 81 1010.6
20260508044605 48 5 1.0 3.0 0.00 0.01 0.01 80 1010.5
20260508043107 48 5 1.0 3.0 0.00 0.01 0.01 79 1010.4
20260508041554 49 5 1.0 3.0 0.00 0.01 0.01 77 1010.3
20260508034557 48 5 1.0 5.0 0.00 0.01 0.01 78 1010.2
20260508033050 47 360 1.0 4.0 0.00 0.01 0.01 81 1010.1
20260508031554 46 0 0.0 0.0 0.00 0.01 0.01 82 1010.2
20260508030059 45 0 0.0 0.0 0.00 0.01 0.01 83 1010.0
20260508024553 45 0 0.0 0.0 0.00 0.01 0.01 82 1009.8
20260508023051 46 0 0.0 0.0 0.00 0.01 0.01 82 1009.8
20260508021553 46 0 0.0 0.0 0.00 0.01 0.01 81 1009.7
20260508020053 47 0 0.0 0.0 0.00 0.01 0.01 81 1009.5
20260508014549 47 0 0.0 0.0 0.00 0.01 0.01 79 1009.4
20260508013051 48 0 0.0 0.0 0.00 0.01 0.01 78 1009.2
20260508011549 49 0 0.0 0.0 0.00 0.01 0.01 75 1009.2
20260508010053 51 0 0.0 0.0 0.00 0.01 0.01 73 1009.0
20260508004557 52 0 0.0 0.0 0.00 0.01 0.01 71 1009.0
20260508003056 53 0 0.0 0.0 0.00 0.01 0.01 69 1008.8
20260508001554 54 0 0.0 2.0 0.00 0.01 0.01 68 1008.9
20260508000051 54 0 0.0 2.0 0.00 0.01 0.01 69 1008.8
20260507234559 54 360 0.0 4.0 0.00 0.01 0.01 68 1009.0
20260507233050 54 360 0.0 2.0 0.00 0.01 0.01 74 1009.1
20260507231558 53 0 0.0 2.0 0.01 0.01 0.01 79 1009.0
20260507230058 53 0 0.0 0.0 0.01 0.01 0.01 80 1009.2
20260507224555 53 0 0.0 0.0 0.01 0.01 0.01 77 1009.5
20260507223057 53 0 0.0 2.0 0.01 0.01 0.01 77 1009.4
20260507221552 54 0 0.0 3.0 0.00 0.00 0.00 70 1010.0
20260507220051 58 360 3.0 9.0 0.00 0.00 0.00 54 1009.9
20260507214557 59 360 3.0 14.0 0.00 0.00 0.00 53 1009.1
20260507213054 60 360 3.0 14.0 0.00 0.00 0.00 51 1009.2
20260507211551 61 360 3.0 13.0 0.00 0.00 0.00 49 1009.2
20260507210057 61 360 4.0 16.0 0.00 0.00 0.00 51 1009.5
20260507204551 61 360 3.0 12.0 0.00 0.00 0.00 51 1009.3
20260507203101 60 360 4.0 16.0 0.00 0.00 0.00 50 1009.5
20260507201604 60 360 6.0 17.0 0.00 0.00 0.00 52 1009.8
20260507200052 59 360 5.0 15.0 0.00 0.00 0.00 55 1010.0
20260507194553 59 360 5.0 20.0 0.00 0.00 0.00 54 1010.7
20260507193058 58 360 4.0 14.0 0.00 0.00 0.00 55 1010.8
20260507191557 58 360 5.0 14.0 0.00 0.00 0.00 56 1010.9
20260507190054 58 360 4.0 18.0 0.00 0.00 0.00 56 1011.1
20260507184550 58 360 5.0 15.0 0.00 0.00 0.00 53 1011.1
20260507183054 58 360 6.0 14.0 0.00 0.00 0.00 47 1011.3
20260507181552 59 360 5.0 14.0 0.00 0.00 0.00 43 1011.2
20260507180047 58 0 3.0 15.0 0.00 0.00 0.00 46 1011.4
20260507174604 59 360 5.0 15.0 0.00 0.00 0.00 40 1011.7
20260507173058 59 360 5.0 14.0 0.00 0.00 0.00 41 1011.8
20260507171611 58 360 2.0 11.0 0.00 0.00 0.00 44 1012.1
20260507170058 57 360 3.0 11.0 0.00 0.00 0.00 45 1012.6
20260507164604 58 360 5.0 14.0 0.00 0.00 0.00 41 1012.8
20260507163049 59 360 2.0 10.0 0.00 0.00 0.00 45 1012.9
20260507161553 57 360 4.0 11.0 0.00 0.00 0.00 44 1013.3
20260507160059 56 360 2.0 9.0 0.00 0.00 0.00 43 1013.4
20260507154551 56 360 3.0 8.0 0.00 0.00 0.00 43 1013.5
20260507153050 56 360 1.0 6.0 0.00 0.00 0.00 45 1013.6
20260507151554 55 360 2.0 8.0 0.00 0.00 0.00 46 1013.8
20260507150059 54 360 2.0 6.0 0.00 0.00 0.00 45 1013.9
20260507144550 53 360 3.0 8.0 0.00 0.00 0.00 47 1014.1
20260507143103 52 360 2.0 9.0 0.00 0.00 0.00 49 1014.4
20260507141555 51 360 2.0 8.0 0.00 0.00 0.00 51 1014.4
20260507140051 50 0 2.0 6.0 0.00 0.00 0.00 52 1014.4
20260507134556 49 360 2.0 5.0 0.00 0.00 0.00 54 1014.7
20260507133058 48 360 1.0 6.0 0.00 0.00 0.00 58 1014.9
20260507131613 47 360 2.0 6.0 0.00 0.00 0.00 63 1015.0
20260507130055 45 360 1.0 6.0 0.00 0.00 0.00 73 1015.0